{"data":{"norad_id":65695,"epoch":"2026-05-24T23:11:01.463424Z","epoch_age_seconds":74024,"freshness":"FRESH","line1":"1 65695U 25212V   26144.96598916 -.00009429  00000+0 -30692-3 0  9991","line2":"2 65695  53.1628 351.2425 0001478 112.0159 248.0999 15.30169400 38932","mean_motion":15.301694,"eccentricity":0.0001478,"inclination_deg":53.1628,"raan_deg":351.2425,"arg_perigee_deg":112.0159,"mean_anomaly_deg":248.0999,"bstar":-0.00030692,"rev_number":3893,"period_min":94.107227604996,"perigee_km":474.29349808624,"apogee_km":476.31937596623,"semimajor_km":6853.4434370262,"source":"CELESTRAK","updated_at":"2026-05-25T13:38:20.897782Z"}}